Location: Bosdarros
(43.2167°N, 0.3667°W)
Time: 16:30:39
(UTC+00:00)

Cosmos 614 Rocket - Pass Details

Date: 22 April 2021
Orbit: 734 x 763 km, 74.1° (Epoch: 12 May)

Event Time Altitude Azimuth Distance (km) Brightness Sun altitude
Rises 19:17:34 0° 181° (S) 3,183 7.0 -5.1°
Reaches altitude 10° 19:20:00 10° 175° (S) 2,258 6.2 -5.5°
Maximum altitude 19:24:51 45° 104° (ESE) 1,013 4.2 -6.3°
Drops below altitude 10° 19:29:41 10° 32° (NNE) 2,257 6.4 -7.1°
Sets 19:32:07 0° 27° (NNE) 3,181 7.2 -7.5°
